EZY56HR GCRR-EGKK

Flight info

Callsign EZY56HR
Flight time N/A
Altitude 34000
Route VASTO DCT NIDEB DCT TIGGI/N0443F360 DCT BUSEN DCT PINEK DCT KORUL DCT FEJAC DCT JSY/N0428F340 DCT REVTU UP88 VASUX
Aircraft A320/M-SDE3FGHIRWY/LB1

Departure

Time N/A
Airport César Manrique-Lanzarote Airport (GCRR)

Arrival

Time 2026-05-03 23:14
Airport London Gatwick Airport (EGKK)
Time Latitude Longitude Altitude Speed Heading
2026-05-03 20:15 32.39414 -12.36756 34124 ft 479 kts 23°
2026-05-03 20:15 32.45211 -12.32962 34124 ft 479 kts 23°
2026-05-03 20:16 32.51039 -12.29139 34126 ft 479 kts 23°
2026-05-03 20:16 32.56868 -12.25310 34137 ft 480 kts 23°
2026-05-03 20:17 32.62714 -12.21473 34125 ft 481 kts 23°
2026-05-03 20:17 32.67578 -12.18271 34125 ft 481 kts 23°
2026-05-03 20:18 32.74371 -12.13771 34125 ft 481 kts 23°
2026-05-03 20:18 32.80219 -12.09905 34125 ft 481 kts 23°
2026-05-03 20:19 32.86070 -12.06033 34125 ft 481 kts 23°
2026-05-03 20:19 32.90928 -12.02815 34126 ft 481 kts 23°
2026-05-03 20:20 32.96852 -11.99171 34124 ft 474 kts 14°
2026-05-03 20:20 33.04131 -11.96584 34126 ft 469 kts
2026-05-03 20:21 33.09351 -11.94815 34127 ft 469 kts
2026-05-03 20:21 33.15631 -11.92680 34125 ft 470 kts
2026-05-03 20:22 33.21919 -11.90534 34124 ft 470 kts
2026-05-03 20:22 33.28207 -11.88374 34127 ft 470 kts
2026-05-03 20:23 33.34498 -11.86223 34130 ft 470 kts
2026-05-03 20:23 33.40744 -11.84098 34132 ft 470 kts
2026-05-03 20:24 33.47037 -11.81946 34132 ft 471 kts
2026-05-03 20:24 33.53330 -11.79777 34132 ft 471 kts
2026-05-03 20:25 33.59624 -11.77611 34126 ft 471 kts
2026-05-03 20:25 33.65878 -11.75452 34164 ft 471 kts
2026-05-03 20:26 33.72185 -11.73271 34129 ft 472 kts
2026-05-03 20:26 33.78496 -11.71087 34130 ft 472 kts
2026-05-03 20:27 33.84812 -11.68910 34127 ft 472 kts
2026-05-03 20:27 33.91082 -11.66742 34131 ft 472 kts
2026-05-03 20:28 33.97402 -11.64550 34129 ft 473 kts
2026-05-03 20:28 34.03731 -11.62343 34128 ft 474 kts
2026-05-03 20:29 34.10065 -11.60126 34125 ft 473 kts
2026-05-03 20:29 34.16391 -11.57926 34128 ft 473 kts
2026-05-03 20:30 34.22677 -11.55739 34117 ft 474 kts
2026-05-03 20:30 34.29016 -11.53528 34127 ft 474 kts
2026-05-03 20:31 34.35354 -11.51300 34128 ft 474 kts
2026-05-03 20:31 34.41691 -11.49074 34128 ft 474 kts
2026-05-03 20:32 34.47995 -11.46861 34118 ft 475 kts
2026-05-03 20:32 34.54354 -11.44628 34126 ft 476 kts
2026-05-03 20:33 34.60720 -11.42382 34124 ft 476 kts
2026-05-03 20:33 34.67083 -11.40133 34123 ft 476 kts
2026-05-03 20:34 34.73441 -11.37886 34143 ft 477 kts
2026-05-03 20:34 34.79772 -11.35640 34115 ft 477 kts
2026-05-03 20:35 34.86148 -11.33381 34128 ft 477 kts
2026-05-03 20:35 34.92520 -11.31118 34122 ft 477 kts
2026-05-03 20:36 34.98908 -11.28837 34150 ft 478 kts
2026-05-03 20:36 35.05246 -11.26565 34128 ft 478 kts
2026-05-03 20:37 35.11621 -11.24288 34129 ft 478 kts
2026-05-03 20:37 35.18006 -11.22015 34125 ft 478 kts
2026-05-03 20:38 35.24385 -11.19734 34159 ft 477 kts
2026-05-03 20:38 35.30738 -11.17445 34128 ft 475 kts
2026-05-03 20:39 35.37028 -11.15183 34127 ft 474 kts
2026-05-03 20:39 35.43363 -11.12905 34128 ft 474 kts
2026-05-03 20:40 35.49697 -11.10630 34125 ft 474 kts
2026-05-03 20:40 35.56029 -11.08347 34125 ft 474 kts
2026-05-03 20:41 35.62361 -11.06047 34128 ft 474 kts
2026-05-03 20:41 35.68641 -11.03767 34128 ft 474 kts
2026-05-03 20:42 35.74969 -11.01471 34167 ft 474 kts
2026-05-03 20:42 35.81282 -10.99169 34127 ft 473 kts
2026-05-03 20:43 35.87592 -10.96871 34126 ft 473 kts
2026-05-03 20:43 35.93898 -10.94570 34125 ft 473 kts
2026-05-03 20:44 36.00170 -10.92288 34133 ft 473 kts
2026-05-03 20:44 36.06514 -10.90066 34327 ft 474 kts
2026-05-03 20:44 36.09692 -10.88966 34560 ft 474 kts
2026-05-03 20:45 36.12864 -10.87862 34786 ft 474 kts
2026-05-03 20:45 36.16036 -10.86756 34989 ft 474 kts
2026-05-03 20:45 36.19209 -10.85649 35203 ft 474 kts
2026-05-03 20:45 36.22381 -10.84536 35418 ft 473 kts
2026-05-03 20:46 36.25547 -10.83423 35659 ft 473 kts
2026-05-03 20:46 36.28674 -10.82322 35841 ft 473 kts
2026-05-03 20:46 36.31841 -10.81203 36024 ft 474 kts
2026-05-03 20:47 36.38121 -10.78957 36122 ft 463 kts
2026-05-03 20:47 36.44283 -10.76760 36122 ft 459 kts
2026-05-03 20:48 36.50421 -10.74585 36122 ft 459 kts
2026-05-03 20:48 36.56516 -10.72429 36123 ft 458 kts
2026-05-03 20:49 36.62650 -10.70253 36117 ft 458 kts
2026-05-03 20:49 36.68779 -10.68074 36117 ft 458 kts
2026-05-03 20:50 36.74908 -10.65875 36121 ft 458 kts
2026-05-03 20:50 36.80992 -10.63690 36145 ft 458 kts
2026-05-03 20:51 36.87112 -10.61491 36121 ft 458 kts
2026-05-03 20:51 36.93232 -10.59285 36119 ft 458 kts
2026-05-03 20:52 36.99351 -10.57091 36123 ft 458 kts
2026-05-03 20:52 37.05479 -10.54898 36151 ft 458 kts
2026-05-03 20:53 37.11572 -10.52695 36141 ft 459 kts
2026-05-03 20:53 37.17708 -10.50470 36135 ft 459 kts
2026-05-03 20:54 37.23849 -10.48250 36132 ft 459 kts
2026-05-03 20:54 37.33048 -10.44904 36150 ft 459 kts
2026-05-03 20:55 37.39132 -10.42690 36141 ft 458 kts
2026-05-03 20:55 37.45254 -10.40464 36130 ft 458 kts
2026-05-03 20:56 37.51374 -10.38235 36133 ft 458 kts
2026-05-03 20:56 37.57486 -10.36001 36121 ft 457 kts
2026-05-03 20:57 37.63547 -10.33780 36119 ft 457 kts
2026-05-03 20:57 37.69651 -10.31544 36117 ft 457 kts
2026-05-03 20:58 37.75757 -10.29301 36146 ft 457 kts
2026-05-03 20:58 37.81859 -10.27051 36128 ft 457 kts
2026-05-03 20:59 37.87959 -10.24797 36122 ft 457 kts
2026-05-03 20:59 37.94019 -10.22559 36116 ft 456 kts
2026-05-03 21:00 37.99086 -10.20689 36111 ft 457 kts
2026-05-03 21:00 38.06222 -10.18047 36105 ft 458 kts
2026-05-03 21:01 38.12339 -10.15779 36106 ft 458 kts
2026-05-03 21:01 38.18417 -10.13521 36107 ft 458 kts
2026-05-03 21:02 38.24533 -10.11240 36135 ft 458 kts
2026-05-03 21:02 38.30643 -10.08952 36125 ft 458 kts
2026-05-03 21:03 38.36750 -10.06662 36113 ft 457 kts
2026-05-03 21:03 38.42855 -10.04353 36105 ft 458 kts
2026-05-03 21:04 38.48948 -10.01916 36128 ft 459 kts 10°
2026-05-03 21:04 38.55016 -9.99435 36117 ft 457 kts 10°
2026-05-03 21:05 38.61038 -9.96990 36104 ft 457 kts 10°
2026-05-03 21:05 38.67103 -9.94547 36100 ft 457 kts 10°
2026-05-03 21:06 38.73171 -9.92107 36113 ft 457 kts 10°
2026-05-03 21:06 38.79236 -9.89661 36107 ft 457 kts 10°
2026-05-03 21:07 38.85296 -9.87201 36104 ft 457 kts 10°
2026-05-03 21:07 38.91361 -9.84732 36103 ft 457 kts 10°
2026-05-03 21:08 38.97384 -9.82282 36126 ft 457 kts 11°
2026-05-03 21:08 39.03449 -9.79815 36113 ft 457 kts 11°
2026-05-03 21:09 39.09514 -9.77337 36109 ft 457 kts 11°
2026-05-03 21:09 39.15579 -9.74861 36102 ft 457 kts 11°
2026-05-03 21:10 39.21640 -9.72376 36117 ft 457 kts 11°
2026-05-03 21:10 39.27662 -9.69904 36110 ft 457 kts 11°
2026-05-03 21:11 39.33722 -9.67412 36104 ft 457 kts 11°
2026-05-03 21:11 39.39779 -9.64904 36102 ft 457 kts 11°
2026-05-03 21:12 39.45836 -9.62394 36127 ft 457 kts 12°
2026-05-03 21:12 39.51885 -9.59899 36119 ft 456 kts 12°
2026-05-03 21:13 39.57922 -9.57402 36111 ft 455 kts 12°
2026-05-03 21:13 39.63909 -9.54915 36135 ft 455 kts 12°
2026-05-03 21:14 39.69931 -9.52421 36110 ft 454 kts 12°
2026-05-03 21:14 39.75934 -9.49918 36107 ft 453 kts 12°
2026-05-03 21:15 39.81927 -9.47409 36102 ft 452 kts 12°
2026-05-03 21:15 39.87881 -9.44921 36100 ft 452 kts 12°
2026-05-03 21:16 39.93877 -9.42416 36098 ft 453 kts 12°
2026-05-03 21:16 39.99879 -9.39898 36096 ft 453 kts 12°
2026-05-03 21:17 40.04903 -9.37788 36088 ft 453 kts 12°
2026-05-03 21:17 40.11873 -9.34851 36121 ft 453 kts 13°
2026-05-03 21:18 40.17865 -9.32316 36110 ft 452 kts 13°
2026-05-03 21:18 40.23846 -9.29781 36104 ft 452 kts 13°
2026-05-03 21:19 40.29787 -9.27266 36097 ft 452 kts 13°
2026-05-03 21:19 40.35765 -9.24736 36093 ft 451 kts 13°
2026-05-03 21:20 40.41743 -9.22204 36088 ft 451 kts 13°
2026-05-03 21:20 40.47709 -9.19669 36084 ft 451 kts 13°
2026-05-03 21:21 40.53673 -9.17115 36083 ft 451 kts 13°
2026-05-03 21:21 40.59634 -9.14556 36093 ft 450 kts 13°
2026-05-03 21:22 40.65552 -9.12024 36085 ft 450 kts 13°
2026-05-03 21:22 40.71508 -9.09476 36079 ft 450 kts 13°
2026-05-03 21:23 40.77461 -9.06914 36064 ft 450 kts 13°
2026-05-03 21:23 40.83423 -9.04345 36078 ft 451 kts 13°
2026-05-03 21:24 40.89392 -9.01773 36077 ft 451 kts 13°
2026-05-03 21:24 40.95320 -8.99214 36075 ft 451 kts 13°
2026-05-03 21:25 41.01288 -8.96627 36091 ft 451 kts 14°
2026-05-03 21:25 41.07257 -8.94032 36081 ft 451 kts 13°
2026-05-03 21:26 41.13219 -8.91442 36076 ft 451 kts 13°
2026-05-03 21:26 41.19140 -8.88867 36072 ft 451 kts 13°
2026-05-03 21:27 41.25095 -8.86275 36092 ft 450 kts 14°
2026-05-03 21:27 41.31039 -8.83669 36081 ft 449 kts 14°
2026-05-03 21:28 41.36971 -8.81064 36074 ft 449 kts 14°
2026-05-03 21:28 41.42906 -8.78468 36062 ft 449 kts 14°
2026-05-03 21:29 41.48834 -8.75861 36070 ft 449 kts 14°
2026-05-03 21:29 41.54756 -8.73242 36065 ft 448 kts 14°
2026-05-03 21:30 41.60640 -8.70640 36052 ft 449 kts 14°
2026-05-03 21:30 41.66569 -8.68020 36067 ft 449 kts 14°
2026-05-03 21:31 41.72494 -8.65393 36066 ft 449 kts 14°
2026-05-03 21:31 41.78416 -8.62766 36061 ft 448 kts 14°
2026-05-03 21:32 41.84329 -8.60138 36055 ft 447 kts 14°
2026-05-03 21:32 41.90148 -8.57284 36069 ft 449 kts 18°
2026-05-03 21:33 41.95930 -8.54099 36063 ft 449 kts 19°
2026-05-03 21:33 42.01700 -8.50899 36060 ft 448 kts 19°
2026-05-03 21:34 42.07486 -8.47773 36052 ft 448 kts 18°
2026-05-03 21:34 42.13277 -8.44675 36067 ft 448 kts 18°
2026-05-03 21:35 42.19022 -8.41589 36060 ft 447 kts 18°
2026-05-03 21:35 42.24793 -8.38471 36061 ft 447 kts 18°
2026-05-03 21:36 42.30558 -8.35349 36052 ft 446 kts 18°
2026-05-03 21:36 42.36322 -8.32223 36046 ft 446 kts 19°
2026-05-03 21:37 42.42038 -8.29115 36045 ft 446 kts 19°
2026-05-03 21:37 42.47794 -8.25991 36035 ft 446 kts 19°
2026-05-03 21:38 42.53552 -8.22855 36030 ft 446 kts 19°
2026-05-03 21:38 42.59313 -8.19699 36034 ft 446 kts 19°
2026-05-03 21:39 42.65027 -8.16567 36033 ft 446 kts 19°
2026-05-03 21:39 42.70786 -8.13408 36032 ft 446 kts 19°
2026-05-03 21:40 42.76537 -8.10249 36040 ft 446 kts 19°
2026-05-03 21:40 42.82284 -8.07085 36041 ft 445 kts 19°
2026-05-03 21:41 42.87984 -8.03934 36045 ft 445 kts 19°
2026-05-03 21:41 42.93719 -8.00761 36033 ft 445 kts 19°
2026-05-03 21:42 42.99452 -7.97588 36039 ft 444 kts 19°
2026-05-03 21:42 43.05178 -7.94399 36036 ft 444 kts 19°
2026-05-03 21:43 43.10898 -7.91217 36035 ft 444 kts 19°
2026-05-03 21:43 43.16585 -7.88052 36053 ft 444 kts 19°
2026-05-03 21:44 43.22297 -7.84857 36049 ft 443 kts 19°
2026-05-03 21:44 43.27992 -7.81666 36049 ft 442 kts 19°
2026-05-03 21:45 43.33694 -7.78473 36045 ft 442 kts 19°
2026-05-03 21:45 43.39343 -7.75297 36058 ft 442 kts 20°
2026-05-03 21:46 43.45024 -7.72092 36056 ft 441 kts 20°
2026-05-03 21:46 43.50706 -7.68888 36058 ft 441 kts 20°
2026-05-03 21:47 43.56386 -7.65684 36059 ft 441 kts 20°
2026-05-03 21:47 43.62019 -7.62489 36066 ft 441 kts 20°
2026-05-03 21:48 43.67681 -7.59265 36042 ft 440 kts 20°
2026-05-03 21:48 43.73346 -7.56038 36029 ft 441 kts 20°
2026-05-03 21:49 43.79021 -7.52809 36038 ft 442 kts 20°
2026-05-03 21:49 43.84669 -7.49583 36037 ft 442 kts 20°
2026-05-03 21:50 43.90361 -7.46324 36045 ft 442 kts 20°
2026-05-03 21:50 43.96048 -7.43056 36046 ft 442 kts 20°
2026-05-03 21:51 44.01732 -7.39786 36060 ft 442 kts 20°
2026-05-03 21:51 44.07414 -7.36515 36057 ft 442 kts 20°
2026-05-03 21:52 44.13044 -7.33261 36052 ft 441 kts 20°
2026-05-03 21:52 44.18706 -7.29984 36045 ft 441 kts 20°
2026-05-03 21:53 44.24362 -7.26699 36048 ft 440 kts 20°
2026-05-03 21:53 44.30011 -7.23416 36040 ft 440 kts 20°
2026-05-03 21:54 44.35621 -7.20144 36019 ft 440 kts 20°
2026-05-03 21:54 44.41277 -7.16841 36024 ft 441 kts 20°
2026-05-03 21:55 44.46940 -7.13541 36020 ft 441 kts 20°
2026-05-03 21:55 44.52560 -7.10257 36021 ft 441 kts 20°
2026-05-03 21:56 44.58228 -7.06931 36027 ft 442 kts 20°
2026-05-03 21:56 44.63894 -7.03590 36028 ft 441 kts 21°
2026-05-03 21:57 44.69550 -7.00243 36027 ft 441 kts 20°
2026-05-03 21:57 44.75177 -6.96919 36028 ft 441 kts 20°
2026-05-03 21:58 44.80838 -6.93572 36038 ft 441 kts 21°
2026-05-03 21:58 44.86182 -6.89327 36035 ft 443 kts 34°
2026-05-03 21:59 44.91187 -6.84254 36014 ft 443 kts 34°
2026-05-03 21:59 44.96200 -6.79191 36004 ft 443 kts 34°
2026-05-03 22:00 45.01182 -6.74153 36015 ft 444 kts 34°
2026-05-03 22:00 45.06197 -6.69069 36012 ft 444 kts 34°
2026-05-03 22:01 45.11213 -6.63969 36013 ft 444 kts 34°
2026-05-03 22:01 45.16216 -6.58855 36008 ft 443 kts 34°
2026-05-03 22:02 45.21179 -6.53771 36009 ft 443 kts 35°
2026-05-03 22:02 45.26193 -6.48656 36000 ft 444 kts 35°
2026-05-03 22:03 45.31207 -6.43524 36006 ft 445 kts 35°
2026-05-03 22:03 45.36219 -6.38373 36004 ft 445 kts 35°
2026-05-03 22:04 45.41200 -6.33232 36014 ft 445 kts 35°
2026-05-03 22:04 45.46207 -6.28056 36020 ft 445 kts 35°
2026-05-03 22:05 45.51212 -6.22875 36009 ft 444 kts 35°
2026-05-03 22:05 45.56213 -6.17676 36000 ft 445 kts 35°
2026-05-03 22:06 45.61228 -6.12456 36005 ft 446 kts 35°
2026-05-03 22:06 45.66216 -6.07272 36010 ft 446 kts 35°
2026-05-03 22:07 45.71226 -6.02028 36017 ft 446 kts 36°
2026-05-03 22:07 45.76237 -5.96772 36020 ft 446 kts 36°
2026-05-03 22:08 45.81249 -5.91523 36017 ft 446 kts 36°
2026-05-03 22:08 45.86226 -5.86290 36010 ft 446 kts 36°
2026-05-03 22:09 45.91230 -5.81007 36006 ft 447 kts 36°
2026-05-03 22:10 45.98740 -5.73068 36002 ft 447 kts 36°
2026-05-03 22:10 46.03711 -5.67804 36014 ft 447 kts 36°
2026-05-03 22:11 46.08705 -5.62498 36019 ft 446 kts 36°
2026-05-03 22:11 46.13693 -5.57181 35997 ft 446 kts 36°
2026-05-03 22:12 46.18679 -5.51853 35988 ft 446 kts 36°
2026-05-03 22:12 46.23678 -5.46522 35982 ft 447 kts 36°
2026-05-03 22:13 46.28636 -5.41204 35990 ft 447 kts 36°
2026-05-03 22:13 46.33621 -5.35834 35991 ft 447 kts 36°
2026-05-03 22:14 46.38607 -5.30457 35987 ft 447 kts 36°
2026-05-03 22:14 46.43592 -5.25077 35986 ft 447 kts 36°
2026-05-03 22:15 46.48539 -5.19721 35974 ft 447 kts 37°
2026-05-03 22:15 46.53520 -5.14311 35975 ft 447 kts 37°
2026-05-03 22:16 46.58501 -5.08892 35980 ft 447 kts 37°
2026-05-03 22:16 46.63482 -5.03464 35981 ft 447 kts 37°
2026-05-03 22:17 46.68422 -4.98064 35983 ft 447 kts 37°
2026-05-03 22:17 46.73394 -4.92616 35982 ft 447 kts 37°
2026-05-03 22:18 46.78361 -4.87165 35963 ft 447 kts 37°
2026-05-03 22:18 46.83327 -4.81697 35961 ft 447 kts 37°
2026-05-03 22:19 46.88263 -4.76244 35977 ft 448 kts 37°
2026-05-03 22:19 46.93233 -4.70756 35984 ft 447 kts 37°
2026-05-03 22:20 46.98196 -4.65264 35988 ft 447 kts 37°
2026-05-03 22:20 47.03149 -4.59761 35987 ft 447 kts 37°
2026-05-03 22:21 47.08060 -4.54287 35983 ft 446 kts 37°
2026-05-03 22:21 47.13007 -4.48761 35996 ft 446 kts 38°
2026-05-03 22:22 47.17938 -4.43232 35991 ft 446 kts 38°
2026-05-03 22:22 47.22869 -4.37712 35990 ft 445 kts 38°
2026-05-03 22:23 47.27759 -4.32219 35984 ft 445 kts 38°
2026-05-03 22:23 47.32679 -4.26668 35991 ft 445 kts 38°
2026-05-03 22:24 47.37589 -4.21107 35994 ft 445 kts 38°
2026-05-03 22:24 47.42503 -4.15555 35960 ft 445 kts 38°
2026-05-03 22:25 47.47384 -4.10024 35956 ft 446 kts 38°
2026-05-03 22:25 47.52310 -4.04421 35974 ft 447 kts 38°
2026-05-03 22:26 47.57234 -3.98794 35970 ft 447 kts 38°
2026-05-03 22:26 47.62126 -3.93192 35969 ft 448 kts 38°
2026-05-03 22:27 47.67062 -3.87528 35971 ft 449 kts 38°
2026-05-03 22:27 47.71997 -3.81859 35969 ft 449 kts 38°
2026-05-03 22:28 47.76932 -3.76173 35970 ft 449 kts 38°
2026-05-03 22:28 47.81869 -3.70472 35971 ft 450 kts 38°
2026-05-03 22:29 47.86777 -3.64795 35966 ft 450 kts 39°
2026-05-03 22:29 47.91711 -3.59070 35974 ft 450 kts 39°
2026-05-03 22:30 47.96645 -3.53327 35983 ft 450 kts 38°
2026-05-03 22:30 48.01571 -3.47582 35979 ft 450 kts 39°
2026-05-03 22:31 48.06462 -3.41858 35982 ft 449 kts 39°
2026-05-03 22:31 48.11380 -3.36086 35965 ft 450 kts 39°
2026-05-03 22:32 48.16305 -3.30306 35964 ft 450 kts 39°
2026-05-03 22:32 48.21231 -3.24518 35970 ft 450 kts 39°
2026-05-03 22:33 48.26118 -3.18746 35971 ft 450 kts 39°
2026-05-03 22:33 48.31026 -3.12915 35974 ft 450 kts 39°
2026-05-03 22:34 48.35940 -3.07075 35971 ft 450 kts 39°
2026-05-03 22:34 48.40022 -3.02218 35981 ft 450 kts 39°
2026-05-03 22:35 48.44935 -2.96372 35954 ft 450 kts 39°
2026-05-03 22:35 48.50642 -2.89546 35963 ft 451 kts 39°
2026-05-03 22:36 48.55547 -2.83654 35965 ft 451 kts 39°
2026-05-03 22:36 48.59629 -2.78750 35964 ft 451 kts 39°
2026-05-03 22:37 48.64534 -2.72843 35974 ft 451 kts 39°
2026-05-03 22:37 48.69441 -2.66927 35973 ft 451 kts 39°
2026-05-03 22:38 48.74307 -2.61040 35949 ft 451 kts 40°
2026-05-03 22:38 48.79206 -2.55103 35949 ft 452 kts 39°
2026-05-03 22:39 48.84180 -2.49262 35953 ft 453 kts 38°
2026-05-03 22:39 48.89199 -2.43461 35960 ft 453 kts 38°
2026-05-03 22:40 48.94179 -2.37669 35965 ft 454 kts 38°
2026-05-03 22:40 48.99177 -2.31788 35971 ft 454 kts 39°
2026-05-03 22:41 49.04170 -2.25892 35975 ft 454 kts 38°
2026-05-03 22:41 49.09164 -2.19992 35982 ft 454 kts 38°
2026-05-03 22:42 49.14149 -2.14096 35982 ft 453 kts 38°
2026-05-03 22:42 49.19093 -2.08231 35983 ft 453 kts 39°
2026-05-03 22:43 49.24271 -2.02771 35856 ft 454 kts 29°
2026-05-03 22:43 49.27032 -2.00425 35605 ft 454 kts 29°
2026-05-03 22:43 49.29795 -1.98089 35374 ft 454 kts 29°
2026-05-03 22:43 49.32526 -1.95785 35136 ft 454 kts 29°
2026-05-03 22:44 49.35294 -1.93448 34896 ft 455 kts 29°
2026-05-03 22:44 49.38068 -1.91103 34659 ft 456 kts 29°
2026-05-03 22:44 49.40845 -1.88745 34429 ft 457 kts 29°
2026-05-03 22:44 49.43629 -1.86370 34194 ft 458 kts 29°
2026-05-03 22:45 49.46411 -1.83987 33977 ft 459 kts 29°
2026-05-03 22:45 49.49203 -1.81586 33707 ft 460 kts 29°
2026-05-03 22:45 49.51993 -1.79185 33443 ft 459 kts 29°
2026-05-03 22:45 49.54784 -1.76784 33152 ft 459 kts 29°
2026-05-03 22:46 49.57569 -1.74394 32880 ft 457 kts 29°
2026-05-03 22:46 49.60405 -1.72209 32614 ft 455 kts 21°
2026-05-03 22:46 49.63373 -1.70539 32349 ft 453 kts 18°
2026-05-03 22:46 49.66336 -1.68917 32081 ft 451 kts 19°
2026-05-03 22:47 49.69245 -1.67319 31836 ft 449 kts 19°
2026-05-03 22:47 49.72182 -1.65706 31584 ft 447 kts 19°
2026-05-03 22:47 49.75106 -1.64096 31333 ft 444 kts 19°
2026-05-03 22:47 49.78005 -1.62489 31083 ft 441 kts 19°
2026-05-03 22:48 49.80885 -1.60883 30830 ft 439 kts 19°
2026-05-03 22:48 49.83755 -1.59279 30576 ft 437 kts 19°
2026-05-03 22:48 49.86614 -1.57684 30328 ft 435 kts 19°
2026-05-03 22:48 49.89457 -1.56103 30090 ft 434 kts 19°
2026-05-03 22:49 49.92292 -1.54527 29808 ft 432 kts 19°
2026-05-03 22:49 49.95108 -1.52960 29515 ft 426 kts 19°
2026-05-03 22:49 49.97880 -1.51410 29068 ft 421 kts 19°
2026-05-03 22:49 50.00625 -1.49875 28642 ft 417 kts 19°
2026-05-03 22:50 50.03317 -1.48457 28235 ft 412 kts 17°
2026-05-03 22:50 50.06031 -1.47122 27814 ft 407 kts 16°
2026-05-03 22:50 50.08728 -1.45846 27389 ft 403 kts 15°
2026-05-03 22:50 50.11402 -1.44595 26972 ft 399 kts 15°
2026-05-03 22:51 50.14051 -1.43342 26541 ft 396 kts 16°
2026-05-03 22:51 50.16673 -1.42081 26112 ft 393 kts 16°
2026-05-03 22:51 50.19280 -1.40801 25693 ft 391 kts 16°
2026-05-03 22:51 50.21864 -1.39523 25247 ft 389 kts 16°
2026-05-03 22:52 50.24440 -1.38253 24807 ft 387 kts 15°
2026-05-03 22:52 50.27001 -1.36989 24342 ft 385 kts 15°
2026-05-03 22:52 50.29551 -1.35733 23894 ft 384 kts 15°
2026-05-03 22:52 50.32094 -1.34481 23425 ft 383 kts 15°
2026-05-03 22:53 50.34596 -1.33247 22938 ft 381 kts 15°
2026-05-03 22:53 50.37110 -1.32005 22498 ft 378 kts 15°
2026-05-03 22:53 50.39608 -1.30773 22063 ft 375 kts 15°
2026-05-03 22:53 50.42091 -1.29546 21629 ft 373 kts 15°
2026-05-03 22:54 50.44557 -1.28318 21189 ft 371 kts 16°
2026-05-03 22:54 50.47014 -1.27091 20760 ft 369 kts 16°
2026-05-03 22:54 50.49415 -1.25707 20336 ft 368 kts 25°
2026-05-03 22:54 50.51609 -1.23654 19914 ft 367 kts 37°
2026-05-03 22:55 50.53577 -1.21111 19494 ft 365 kts 40°
2026-05-03 22:55 50.55519 -1.18547 19075 ft 364 kts 40°
2026-05-03 22:55 50.57457 -1.15999 18651 ft 363 kts 40°
2026-05-03 22:55 50.59395 -1.13458 18236 ft 362 kts 40°
2026-05-03 22:56 50.61298 -1.10957 17786 ft 361 kts 40°
2026-05-03 22:56 50.63215 -1.08429 17388 ft 358 kts 40°
2026-05-03 22:56 50.65116 -1.05920 16994 ft 355 kts 41°
2026-05-03 22:56 50.66816 -1.03123 16607 ft 352 kts 52°
2026-05-03 22:57 50.68357 -1.00134 16199 ft 350 kts 52°
2026-05-03 22:57 50.69891 -0.97163 15806 ft 349 kts 52°
2026-05-03 22:57 50.71422 -0.94212 15422 ft 347 kts 51°
2026-05-03 22:57 50.72953 -0.91273 15030 ft 345 kts 51°
2026-05-03 22:58 50.74471 -0.88354 14651 ft 344 kts 51°
2026-05-03 22:58 50.75965 -0.85477 14274 ft 343 kts 51°
2026-05-03 22:58 50.77490 -0.82523 13887 ft 342 kts 52°
2026-05-03 22:58 50.78965 -0.79652 13484 ft 341 kts 52°
2026-05-03 22:59 50.80364 -0.76657 13092 ft 337 kts 61°
2026-05-03 22:59 50.81281 -0.73322 12940 ft 325 kts 76°
2026-05-03 22:59 50.81738 -0.69903 12958 ft 315 kts 82°
2026-05-03 22:59 50.82131 -0.66509 12949 ft 313 kts 82°
2026-05-03 23:00 50.82528 -0.63128 12966 ft 313 kts 82°
2026-05-03 23:00 50.82925 -0.59747 12957 ft 313 kts 81°
2026-05-03 23:00 50.83320 -0.56364 12964 ft 313 kts 82°
2026-05-03 23:02 50.85684 -0.35754 12962 ft 312 kts 82°
2026-05-03 23:02 50.85815 -0.34608 12956 ft 312 kts 82°
2026-05-03 23:03 50.87975 -0.15498 12195 ft 306 kts 82°
2026-05-03 23:03 50.88345 -0.12211 12070 ft 297 kts 82°
2026-05-03 23:04 50.88717 -0.09039 11941 ft 289 kts 77°
2026-05-03 23:04 50.89609 -0.06257 11805 ft 283 kts 47°
2026-05-03 23:04 50.91187 -0.04483 11561 ft 278 kts 19°
2026-05-03 23:04 50.93037 -0.04004 11272 ft 273 kts 353°
2026-05-03 23:05 50.94927 -0.04506 10634 ft 283 kts 350°
2026-05-03 23:05 50.96927 -0.04257 10041 ft 296 kts 18°
2026-05-03 23:05 50.98684 -0.02589 9646 ft 297 kts 45°
2026-05-03 23:05 50.99818 0.00108 9261 ft 294 kts 68°
2026-05-03 23:06 51.00563 0.03132 8843 ft 294 kts 71°
2026-05-03 23:06 51.01258 0.06174 8477 ft 292 kts 71°
2026-05-03 23:06 51.01945 0.09203 8119 ft 291 kts 71°
2026-05-03 23:06 51.02626 0.12210 7935 ft 289 kts 71°
2026-05-03 23:07 51.03307 0.15216 7792 ft 289 kts 71°
2026-05-03 23:07 51.03985 0.18218 7646 ft 288 kts 71°
2026-05-03 23:07 51.04661 0.21209 7500 ft 288 kts 71°
2026-05-03 23:07 51.05525 0.24017 7354 ft 288 kts 52°
2026-05-03 23:08 51.07053 0.26031 7107 ft 288 kts 25°
2026-05-03 23:08 51.08981 0.26812 6537 ft 291 kts 359°
2026-05-03 23:08 51.10981 0.26288 5908 ft 295 kts 343°
2026-05-03 23:08 51.12971 0.25355 5269 ft 301 kts 341°
2026-05-03 23:09 51.14982 0.24361 4674 ft 304 kts 341°
2026-05-03 23:09 51.16991 0.23323 4157 ft 303 kts 336°
2026-05-03 23:09 51.18716 0.21483 3645 ft 298 kts 311°
2026-05-03 23:09 51.19675 0.18637 3174 ft 291 kts 279°
2026-05-03 23:10 51.19607 0.15537 3040 ft 273 kts 257°
2026-05-03 23:10 51.19167 0.12714 3060 ft 257 kts 255°
2026-05-03 23:10 51.18769 0.10042 3050 ft 239 kts 257°
2026-05-03 23:10 51.18430 0.07545 3054 ft 223 kts 257°
2026-05-03 23:11 51.18115 0.05197 2999 ft 211 kts 257°
2026-05-03 23:11 51.17810 0.02941 2778 ft 204 kts 257°
2026-05-03 23:11 51.17525 0.00833 2544 ft 190 kts 257°
2026-05-03 23:11 51.17256 -0.01146 2253 ft 177 kts 257°
2026-05-03 23:12 51.17000 -0.03034 2042 ft 172 kts 257°
2026-05-03 23:12 51.16750 -0.04871 1797 ft 169 kts 257°
2026-05-03 23:12 51.16502 -0.06689 1555 ft 167 kts 257°
2026-05-03 23:12 51.16255 -0.08497 1329 ft 167 kts 257°
2026-05-03 23:13 51.16014 -0.10265 1093 ft 155 kts 257°
2026-05-03 23:13 51.15795 -0.11869 897 ft 144 kts 257°
2026-05-03 23:13 51.15586 -0.13400 714 ft 140 kts 256°
2026-05-03 23:13 51.15381 -0.14892 535 ft 139 kts 257°
2026-05-03 23:14 51.15155 -0.16534 363 ft 166 kts 257°
2026-05-03 23:14 51.14908 -0.18329 211 ft 153 kts 257°
2026-05-03 23:14 51.14783 -0.19262 210 ft 51 kts 258°
2026-05-03 23:14 51.14789 -0.19552 213 ft 18 kts 287°
2026-05-03 23:15 51.14816 -0.19760 208 ft 20 kts 282°
2026-05-03 23:15 51.14851 -0.19895 210 ft 10 kts 324°
2026-05-03 23:15 51.14889 -0.19855 212 ft 9 kts 77°
2026-05-03 23:15 51.14906 -0.19680 209 ft 19 kts 77°
2026-05-03 23:16 51.14937 -0.19463 208 ft 21 kts 78°
2026-05-03 23:16 51.14969 -0.19231 209 ft 22 kts 77°
2026-05-03 23:16 51.15005 -0.18970 208 ft 26 kts 78°
2026-05-03 23:16 51.15042 -0.18683 208 ft 27 kts 77°
2026-05-03 23:17 51.15086 -0.18381 207 ft 29 kts 77°
2026-05-03 23:17 51.15151 -0.18201 210 ft 15 kts
2026-05-03 23:17 51.15250 -0.18226 204 ft 13 kts 348°
2026-05-03 23:17 51.15336 -0.18256 214 ft 12 kts 348°
2026-05-03 23:18 51.15416 -0.18269 204 ft 11 kts 22°
2026-05-03 23:18 51.15447 -0.18167 213 ft 10 kts 77°
2026-05-03 23:18 51.15461 -0.18069 216 ft 9 kts 77°
2026-05-03 23:18 51.15474 -0.17974 206 ft 11 kts 78°
2026-05-03 23:19 51.15489 -0.17866 204 ft 9 kts 77°
2026-05-03 23:19 51.15501 -0.17776 204 ft 8 kts 77°
2026-05-03 23:19 51.15530 -0.17739 209 ft 5 kts 355°
2026-05-03 23:19 51.15561 -0.17751 207 ft 4 kts 347°
2026-05-03 23:20 51.15573 -0.17755 206 ft 0 kts 347°